Location: Fort Frances
(48.6170°N, 93.4170°W)
Time: 17:03:43
(UTC-06:00)

Daily predictions for brighter satellites

Satellite Brightness Start Highest point End
(mag) Time Altitude Azimuth Time Altitude Azimuth Time Altitude Azimuth
Intercosmos 25 4.2 16:49:46 10° SSW 16:53:36 45° WNW 16:56:43 10° N
NOSS 3-1 (C) 3.6 16:56:47 10° SW 17:02:37 75° NW 17:09:21 10° NE
Cosmos 1743 4.0 17:01:40 10° NNE 17:04:33 20° ENE 17:07:26 10° ESE
CZ-2C R/B 2.9 16:59:46 10° S 17:04:58 73° WSW 17:10:09 10° NNW
ATLAS CENTAUR R/B 2.7 17:01:44 10° NW 17:05:30 43° WSW 17:09:26 10° SSE
Cosmos 1437 Rocket 3.9 17:02:28 10° NNW 17:06:08 47° W 17:09:47 10° S
Cosmos 2369 Rocket 2.8 17:01:40 10° SW 17:07:09 55° WNW 17:12:41 10° NNE
BREEZE-M DEB (TANK) 2.3 17:06:36 10° WSW 17:08:40 56° SSE 17:12:02 10° ENE
Cosmos 1975 Rocket 4.0 17:04:50 10° SSE 17:08:41 29° E 17:12:33 10° NNE
Okean 1 4.2 17:05:36 10° SSE 17:09:00 28° E 17:12:25 10° NNE
MSX 4.1 17:04:13 10° S 17:09:59 75° WSW 17:15:48 10° NNW
Okean 1 Rocket 3.1 17:06:07 10° N 17:10:37 81° E 17:15:07 10° SSE
Cosmos 1655 Rocket 4.4 17:06:26 10° N 17:12:30 44° ENE 17:18:34 10° SE
CSL-04 Rocket 3.7 17:07:09 10° SSE 17:12:31 69° ENE 17:17:59 10° N
Gblst 52 Del rocket 4.3 17:07:18 10° W 17:12:48 66° N 17:18:28 11° ENE
Cosmos 1634 Rocket 4.1 17:06:49 10° S 17:12:51 57° E 17:18:57 10° NNE
Cosmos 1975 3.3 17:12:40 10° N 17:16:28 39° ENE 17:20:17 10° SE
Cosmos 1092 Rocket 4.1 17:10:25 10° N 17:16:40 86° W 17:22:57 10° S
SMAP 3.1 17:12:59 10° SSE 17:17:33 60° ENE 17:22:09 10° N
Cosmos 1674 Rocket 3.9 17:18:55 10° SSW 17:23:13 67° WNW 17:27:31 10° N
ISS -3.7 17:20:33 10° WNW 17:23:50 60° NNE 17:26:30 14° E
ATLAS 2AS CENTAUR R/B 3.8 17:17:16 10° S 17:23:53 32° ESE 17:29:53 13° ENE
CZ-4 R/B 1.5 17:20:45 10° SE 17:24:27 48° ENE 17:28:16 10° N
NOSS 2-3 (E) 4.4 17:22:32 10° S 17:26:57 42° ESE 17:31:11 14° NE
ALOS 3.2 17:23:27 10° ESE 17:27:14 25° ENE 17:31:01 10° N
Cosmos 2219 3.1 17:22:47 10° NNW 17:28:26 71° ENE 17:34:02 10° SE
Cosmos 2227 Rocket 2.8 17:23:17 10° NNW 17:28:26 34° NE 17:33:33 10° ESE
Cosmos 1271 Rocket 3.3 17:27:05 10° N 17:30:31 32° ENE 17:33:57 10° SE
Cosmos 1378 Rocket 3.6 17:26:41 10° S 17:31:08 87° E 17:35:37 10° N
SJ-7 4.4 17:28:01 10° SSE 17:32:03 88° WSW 17:36:04 10° NNW
Cosmos 2195 Rocket 4.5 17:26:06 10° N 17:32:20 89° E 17:38:28 10° S
ATLAS 3B R/B 2.8 17:26:01 10° NW 17:32:37 51° NE 17:38:57 10° ESE
Abrixas rocket 4.3 17:31:04 10° S 17:33:13 17° SE 17:34:47 13° ESE
METEOR-M 4.3 17:28:26 10° SE 17:33:31 47° ENE 17:38:37 10° N
Cosmos 1500 3.4 17:31:22 10° NNW 17:35:10 74° W 17:38:55 10° S
Cosmos 1484 Rocket 2.9 17:31:19 10° SSE 17:35:19 87° WSW 17:39:24 10° NNW
Cosmos 2026 Rocket 4.0 17:29:48 10° N 17:36:15 85° E 17:42:36 10° S
AQUARIUS 4.1 17:33:31 10° SSE 17:38:01 89° E 17:42:34 10° NNW
NOSS 3-1 (A) 3.8 17:33:07 10° SW 17:38:58 63° NW 17:45:11 12° NE
USA 161 3.4 17:40:52 10° N 17:43:14 28° WNW 17:45:44 10° SW
Cosmos 1656 Rocket 3.6 17:37:46 10° SSW 17:43:20 90° WNW 17:48:43 11° NNE
Cosmos 389 Rocket 2.5 17:40:05 10° N 17:43:34 54° ENE 17:46:59 10° SSE
Cosmos 1818 3.6 17:38:22 10° SSW 17:43:45 73° SE 17:48:03 17° NE
Meteor 1-18 Rocket 4.1 17:38:17 10° S 17:43:49 77° E 17:49:29 10° NNE
Cosmos 1898 Rocket 3.4 17:46:56 10° SSW 17:52:08 83° ESE 17:57:07 12° NNE
Ariane Rocket 3.6 17:50:58 10° S 17:55:58 61° WSW 18:01:00 10° NNW
Cosmos 2297 Rocket 2.5 17:50:46 10° NNW 17:56:11 44° NE 18:01:34 10° SE
CORIOLIS 4.4 17:51:20 10° S 17:56:45 74° WSW 18:02:11 10° NNW
Cosmos 1812 4.3 17:56:27 10° SW 18:00:02 36° WNW 18:03:40 10° N
ERS-2 2.2 17:56:56 10° SSE 18:00:30 52° ENE 18:04:06 10° N
Cosmos 2298 Rocket 4.0 17:56:55 10° SSW 18:02:12 71° ESE 18:06:20 17° NNE
NOSS 2-3 (C) 3.9 17:57:38 10° SSW 18:02:21 76° SE 18:05:46 24° NE
Meteor 2-4 Rocket 4.1 17:59:29 10° SSE 18:04:28 37° E 18:07:10 23° NE
Cosmos 1666 2.5 18:04:06 10° N 18:07:54 81° E 18:11:38 10° SSE
Cosmos 1943 Rocket 3.7 18:04:55 10° WSW 18:09:56 32° NW 18:15:01 10° NNE
Cosmos 1937 Rocket 3.4 18:04:45 10° SSW 18:09:57 85° ESE 18:13:52 18° NNE
Cosmos 1048 Rocket 4.3 18:04:55 10° NNW 18:10:06 45° ENE 18:14:28 14° SE
Cosmos 1455 Rocket 2.9 18:07:15 10° N 18:11:44 82° E 18:16:09 10° SSE
PKM 3.9 18:08:42 10° WSW 18:14:29 75° NNW 18:15:24 44° NE
Cosmos 1544 Rocket 3.5 18:10:54 10° N 18:15:19 86° W 18:19:40 10° S
CENTAUR R/B 3.7 18:10:28 10° NW 18:17:10 35° NNE 18:20:03 28° ENE
Meteor 1-19 Rocket 4.2 18:12:03 10° S 18:17:39 68° E 18:23:24 10° NNE
MONITOR-E 4.0 18:17:13 10° SSE 18:20:15 90° SW 18:23:20 10° NNW
YAOGAN 1 3.1 18:16:45 10° S 18:21:02 61° WSW 18:25:20 10° NNW
MOS 1 4.3 18:18:21 10° SSE 18:24:03 85° WSW 18:29:47 10° NNW
Cosmos 2279 Rocket 4.2 18:19:10 10° SSW 18:25:25 73° W 18:31:43 10° N
Cosmos 2369 4.4 18:20:55 10° SSE 18:25:45 33° ESE 18:25:45 33° ESE
USA 238 DEB 3.7 18:20:31 10° NW 18:27:39 90° WSW 18:34:52 10° SE
USA 238 3.7 18:20:37 10° NW 18:27:46 90° ESE 18:34:58 10° SE
Cosmos 2278 4.4 18:23:32 10° SSE 18:28:07 32° ESE 18:28:07 32° ESE
COSMO-SKYMED 1 2.4 18:27:57 31° NNE 18:30:01 81° ESE 18:34:22 10° SSW
EO 1 Del DPAF 3.1 18:30:44 69° E 18:30:46 69° ESE 18:34:34 10° S
Cosmos 724 4.1 18:29:50 10° NW 18:35:39 71° NE 18:38:15 34° SE
USA 116 4.4 18:36:27 27° NNW 18:37:50 41° WNW 18:40:51 10° SW
Cosmos 2263 Rocket 4.2 18:36:55 10° N 18:38:09 13° NNE 18:38:09 13° NNE
Cosmos 1743 4.2 18:36:56 10° NNW 18:40:31 37° W 18:44:06 10° SSW
Cosmos 372 Rocket 4.5 18:38:58 10° S 18:42:59 41° SE 18:42:59 41° SE
FengYun 1-2 T 4.2 18:39:08 10° SSE 18:44:40 64° ENE 18:50:16 10° N
NOSS 2-3 (D) 4.4 18:42:21 10° WSW 18:47:06 60° NW 18:49:02 38° NNE
Nadezhda 2 Rocket 4.4 18:44:46 10° N 18:51:01 67° ENE 18:57:21 10° SSE
DMSP B5D1-3 4.4 18:52:39 56° NNE 18:53:45 80° ESE 18:58:52 10° SSW
SPOT 3 Rocket 4.1 18:49:40 10° S 18:54:46 58° WSW 18:59:54 10° NNW
SJ 16-02 2.8 18:51:19 10° S 18:53:19 26° S 18:53:19 26° S
Cosmos 2082 3.7 18:51:23 10° NNW 18:57:02 79° WSW 19:00:44 22° SSE
Cosmos 1697 Rocket 4.3 18:53:55 10° S 18:55:52 20° SSE 18:55:52 20° SSE
NOSS 3-2 (A) 3.9 18:52:22 10° NW 18:59:47 86° NE 19:03:56 33° SE
CZ-4 R/B 4.3 18:57:21 10° SW 18:59:49 16° W 19:02:19 10° NW
FENGYUN 3A 4.2 18:54:51 10° S 19:00:08 57° W 19:05:27 10° NNW
ISS -1.8 18:57:09 10° WNW 18:59:10 29° WSW 18:59:10 29° WSW
Meteor 1-23 Rocket 4.1 18:56:43 10° S 19:02:29 76° E 19:03:04 69° NE
NOSS 3-2 (C) 3.8 18:56:42 10° NW 19:04:04 76° NE 19:06:37 47° ESE
ALOS 3.3 18:59:58 10° S 19:04:26 45° W 19:08:57 10° NNW
Gblst 52 Del rocket 4.1 18:59:12 10° WNW 19:04:53 83° NNE 19:05:26 74° E
Cosmos 2227 Rocket 3.0 19:07:16 10° NW 19:12:43 49° WSW 19:18:07 10° S
ATLAS 2AS CENTAUR R/B 3.1 19:06:23 10° SW 19:14:17 79° NW 19:17:21 43° NNE
Cosmos 1536 Rocket 4.4 19:10:11 10° SSW 19:14:25 48° WNW 19:14:38 47° WNW
ATLAS 3B R/B 3.5 19:16:58 10° NW 19:23:16 45° WSW 19:28:37 14° S
Cosmos 2297 Rocket 3.6 19:35:01 10° NW 19:40:09 36° WSW 19:44:13 15° SSW
CENTAUR R/B 3.3 20:01:14 10° NW 20:07:16 59° NNW 20:07:16 59° NNW
ATLAS 2AS CENTAUR R/B 4.4 20:59:18 10° W 21:04:49 32° NW 21:04:49 32° NW
